Macomb, IL

9:55 AM CST on November 22, 2017 (GMT -0600)
Macomb Municipal

Weather History for KMQB - December, 2013

Change the Weather History Date:

Tuesday, December 17, 2013

  Actual Average (KBRL) Record (KBRL)
Temperature  
Mean Temperature 24 °F -  
Max Temperature 35 °F 29 °F 59 °F (1939)
Min Temperature 13 °F 17 °F -7 °F (1945)
Degree Days  
Heating Degree Days 41    
Moisture  
Dew Point 20 °F    
Average Humidity 83    
Maximum Humidity 99    
Minimum Humidity 63    
Precipitation  
Precipitation 0.00 in - - ()
Sea Level Pressure  
Sea Level Pressure 30.15 in    
Wind  
Wind Speed 10 mph (West)    
Max Wind Speed 22 mph    
Max Gust Speed 26 mph    
Visibility 6 miles    
Events Snow    
Averages and records for this station are not official NWS values.
T = Trace of Precipitation, MM = Missing Value Source: NWS Daily Summary

Daily Weather History Graph

Daily Weather History Graph

Search for Another Location

Airport or City:

Trip Planner

Search our weather history database for the weather conditions in past years. The results will help you decide how hot, cold, wet, or windy it might be!

Date:

Astronomy

Dec. 17, 2013 Rise Set
Actual Time 7:20 AM CST 4:37 PM CST
Civil Twilight 6:49 AM CST 5:08 PM CST
Nautical Twilight 6:15 AM CST 5:42 PM CST
Astronomical Twilight 5:41 AM CST 6:15 PM CST
Moon 5:17 PM CST (12/17) 7:16 AM CST (12/17)
Length of Visible Light 10h 18m
Length of Day
9h 17m
Full, 100% of the Moon is Illuminated
Dec 17
Full
Dec 25
Last Quarter
Jan 1
New
Jan 7
First Quarter
Jan 15
Full

Hourly Weather History & Observations

Time (CST) Temp. Windchill Dew Point Humidity Pressure Visibility Wind Dir Wind Speed Gust Speed Precip Events Conditions
12:15 AM 23.7 °F 15.6 °F 22.8 °F 96% 30.14 in 3.0 mi WNW 6.9 mph - N/A   Overcast
12:35 AM 23.7 °F 14.7 °F 22.8 °F 96% 30.14 in 3.0 mi West 8.1 mph - N/A   Overcast
12:55 AM 23.7 °F 19.3 °F 22.8 °F 96% 30.12 in 3.0 mi WSW 3.5 mph - N/A   Overcast
1:15 AM 23.7 °F 19.3 °F 22.8 °F 96% 30.12 in 3.0 mi West 3.5 mph - N/A   Overcast
1:35 AM 23.7 °F 15.6 °F 22.8 °F 96% 30.13 in 4.0 mi West 6.9 mph - N/A   Overcast
1:55 AM 23.7 °F 14.7 °F 22.8 °F 96% 30.14 in 4.0 mi West 8.1 mph - N/A   Overcast
2:15 AM 23.2 °F 15.0 °F 22.1 °F 96% 30.15 in 4.0 mi WNW 6.9 mph - N/A   Overcast
2:35 AM 23.5 °F 16.4 °F 22.6 °F 96% 30.14 in 4.0 mi West 5.8 mph - N/A   Overcast
2:55 AM 23.0 °F 14.7 °F 22.3 °F 97% 30.14 in 4.0 mi WNW 6.9 mph - N/A   Overcast
3:15 AM 23.0 °F 14.7 °F 22.1 °F 96% 30.14 in 4.0 mi West 6.9 mph - N/A   Overcast
3:35 AM 22.6 °F 14.3 °F 21.9 °F 97% 30.12 in 4.0 mi WSW 6.9 mph - N/A   Overcast
3:55 AM 19.0 °F 9.0 °F 18.3 °F 97% 30.11 in 3.0 mi WSW 8.1 mph - N/A   Scattered Clouds
4:15 AM 17.6 °F 6.4 °F 17.1 °F 98% 30.12 in 2.5 mi WSW 9.2 mph - N/A   Clear
4:35 AM 19.6 °F 8.1 °F 19.4 °F 99% 30.12 in 3.0 mi WSW 10.4 mph - N/A   Mostly Cloudy
4:55 AM 18.7 °F 7.8 °F 18.1 °F 98% 30.12 in 3.0 mi West 9.2 mph - N/A   Scattered Clouds
5:15 AM 17.6 °F 8.2 °F 16.7 °F 96% 30.13 in 3.0 mi West 6.9 mph - N/A   Clear
5:35 AM 16.7 °F 6.2 °F 15.8 °F 96% 30.12 in 3.0 mi WSW 8.1 mph - N/A   Clear
5:55 AM 13.5 °F 0.5 °F 12.4 °F 95% 30.12 in 4.0 mi WSW 10.4 mph - N/A   Clear
6:15 AM 14.7 °F 2.9 °F 13.8 °F 96% 30.12 in 4.0 mi WSW 9.2 mph - N/A   Clear
6:35 AM 14.5 °F 3.6 °F 13.6 °F 96% 30.13 in 4.0 mi WSW 8.1 mph - N/A   Scattered Clouds
6:55 AM 13.3 °F 1.1 °F 12.6 °F 97% 30.11 in 3.0 mi SW 9.2 mph - N/A   Scattered Clouds
7:15 AM 14.9 °F 3.1 °F 14.2 °F 97% 30.11 in 2.5 mi WSW 9.2 mph - N/A   Clear
7:35 AM 15.6 °F 4.0 °F 15.1 °F 98% 30.11 in 1.8 mi SW 9.2 mph - N/A   Scattered Clouds
7:55 AM 18.9 °F 6.5 °F 18.5 °F 98% 30.11 in 2.5 mi WSW 11.5 mph - N/A   Scattered Clouds
8:15 AM 22.5 °F 10.5 °F 22.1 °F 99% 30.10 in 3.0 mi WSW 12.7 mph - N/A   Mostly Cloudy
8:35 AM 23.9 °F 11.2 °F 23.7 °F 99% 30.11 in 4.0 mi WSW 15.0 mph - N/A   Mostly Cloudy
8:55 AM 24.6 °F 12.7 °F 24.1 °F 98% 30.12 in 5.0 mi West 13.8 mph - N/A   Scattered Clouds
9:15 AM 25.0 °F 13.1 °F 24.4 °F 98% 30.13 in 5.0 mi West 13.8 mph - N/A   Clear
9:35 AM 27.1 °F 15.4 °F 25.3 °F 93% 30.14 in 5.0 mi West 15.0 mph - N/A   Mostly Cloudy
9:55 AM 27.5 °F 15.4 °F 25.2 °F 91% 30.15 in 5.0 mi West 16.1 mph - N/A   Overcast
10:15 AM 28.4 °F 16.2 °F 25.7 °F 90% 30.16 in 3.0 mi West 17.3 mph - N/A Snow Light Snow
10:35 AM 28.9 °F 16.9 °F 26.6 °F 91% 30.16 in 1.5 mi WNW 17.3 mph - N/A Snow Light Snow
10:55 AM 29.3 °F 18.6 °F 28.0 °F 95% 30.14 in 2.5 mi West 13.8 mph - N/A Snow Light Snow
11:15 AM 31.5 °F 21.4 °F 28.9 °F 90% 30.13 in 10.0 mi West 13.8 mph - N/A   Mostly Cloudy
11:35 AM 32.2 °F 21.8 °F 29.5 °F 90% 30.13 in 10.0 mi West 15.0 mph 20.7 mph N/A   Mostly Cloudy
11:55 AM 33.1 °F 23.0 °F 29.7 °F 87% 30.13 in 1.8 mi West 15.0 mph - N/A   Mostly Cloudy
12:15 PM 33.4 °F 23.1 °F 29.3 °F 85% 30.12 in 5.0 mi West 16.1 mph - N/A   Haze
12:35 PM 33.8 °F 23.2 °F 29.1 °F 83% 30.12 in 10.0 mi West 17.3 mph - N/A   Clear
12:55 PM 34.2 °F 24.8 °F 28.4 °F 79% 30.11 in 10.0 mi West 13.8 mph - N/A   Clear
1:15 PM 34.7 °F 25.9 °F 27.9 °F 76% 30.11 in 10.0 mi West 12.7 mph - N/A   Clear
1:35 PM 34.7 °F 25.9 °F 27.9 °F 76% 30.12 in 10.0 mi West 12.7 mph - N/A   Scattered Clouds
1:55 PM 35.4 °F 24.6 °F 27.9 °F 74% 30.11 in 7.0 mi West 19.6 mph 26.5 mph N/A   Scattered Clouds
2:15 PM 35.1 °F 23.5 °F 28.0 °F 76% 30.12 in 1.2 mi West 21.9 mph - N/A   Haze
2:35 PM 35.1 °F 25.2 °F 27.5 °F 74% 30.12 in 1.8 mi WNW 16.1 mph - N/A   Haze
2:55 PM 34.7 °F 25.1 °F 26.8 °F 73% 30.13 in 10.0 mi WNW 15.0 mph - N/A   Mostly Cloudy
3:15 PM 33.1 °F 21.5 °F 22.8 °F 66% 30.13 in 10.0 mi WNW 19.6 mph - N/A   Clear
3:35 PM 32.0 °F 21.2 °F 20.5 °F 63% 30.14 in 10.0 mi WNW 16.1 mph - N/A   Clear
3:55 PM 29.8 °F 19.8 °F 20.3 °F 68% 30.15 in 10.0 mi WNW 12.7 mph - N/A   Clear
4:15 PM 28.6 °F 18.2 °F 19.0 °F 67% 30.15 in 10.0 mi West 12.7 mph - N/A   Clear
4:35 PM 29.1 °F 17.5 °F 19.4 °F 67% 30.16 in 10.0 mi West 16.1 mph - N/A   Clear
4:55 PM 29.3 °F 17.3 °F 19.4 °F 67% 30.16 in 10.0 mi West 17.3 mph - N/A   Clear
5:15 PM 28.2 °F 17.7 °F 18.5 °F 67% 30.17 in 10.0 mi West 12.7 mph - N/A   Clear
5:35 PM 27.7 °F 17.1 °F 17.6 °F 66% 30.18 in 10.0 mi West 12.7 mph - N/A   Clear
5:55 PM 28.0 °F 17.0 °F 18.5 °F 67% 30.18 in 10.0 mi West 13.8 mph - N/A   Clear
6:15 PM 28.0 °F 16.1 °F 18.1 °F 66% 30.19 in 10.0 mi West 16.1 mph - N/A   Clear
6:35 PM 27.9 °F 15.1 °F 18.0 °F 66% 30.19 in 10.0 mi West 18.4 mph - N/A   Clear
6:55 PM 27.1 °F 14.9 °F 17.4 °F 67% 30.20 in 10.0 mi West 16.1 mph - N/A   Clear
7:15 PM 27.5 °F 13.5 °F 17.6 °F 66% 30.20 in 10.0 mi WNW 21.9 mph - N/A   Clear
7:35 PM 25.9 °F 15.3 °F 16.2 °F 67% 30.21 in 10.0 mi WNW 11.5 mph - N/A   Clear
7:55 PM 23.0 °F 13.1 °F 14.4 °F 70% 30.22 in 10.0 mi WNW 9.2 mph - N/A   Clear
8:15 PM 19.9 °F 8.6 °F 12.2 °F 72% 30.22 in 10.0 mi West 10.4 mph - N/A   Clear
8:35 PM 21.9 °F 9.2 °F 12.7 °F 68% 30.22 in 10.0 mi West 13.8 mph - N/A   Clear
8:55 PM 21.6 °F 8.8 °F 12.7 °F 69% 30.22 in 10.0 mi West 13.8 mph - N/A   Clear
9:15 PM 21.2 °F 9.5 °F 12.2 °F 68% 30.22 in 10.0 mi West 11.5 mph - N/A   Clear
9:35 PM 19.8 °F 7.1 °F 12.0 °F 72% 30.23 in 10.0 mi West 12.7 mph - N/A   Clear
9:55 PM 19.4 °F 6.0 °F 11.8 °F 72% 30.23 in 10.0 mi West 13.8 mph - N/A   Clear
10:15 PM 18.3 °F 5.9 °F 11.5 °F 75% 30.24 in 10.0 mi West 11.5 mph - N/A   Clear
10:35 PM 18.5 °F 7.5 °F 11.8 °F 75% 30.24 in 10.0 mi West 9.2 mph - N/A   Clear
10:55 PM 17.4 °F 5.4 °F 10.9 °F 76% 30.24 in 10.0 mi West 10.4 mph - N/A   Clear
11:15 PM 19.8 °F 7.7 °F 10.8 °F 68% 30.24 in 10.0 mi West 11.5 mph - N/A   Clear
11:35 PM 18.5 °F 6.1 °F 10.8 °F 72% 30.24 in 10.0 mi West 11.5 mph - N/A   Clear
11:55 PM 15.8 °F 6.1 °F 9.3 °F 76% 30.23 in 10.0 mi West 6.9 mph - N/A   Clear